Regional Weather Roundup
Issued by NWS Upton, NY

Home | Current Version | Previous Version | Text Only | Print | Product List | Glossary On
Versions: 1 2 3 4 5 6 7 8 9 10 11 12 13 14 15 16 17 18 19 20 21 22 23 24 25 26 27 28 29 30 31 32 33 34 35 36 37 38 39 40 41 42 43 44 45 46 47 48 49 50
000
ASUS41 KOKX 071418
RWROKX

REGIONAL WEATHER ROUNDUP
NATIONAL WEATHER SERVICE NEW YORK NY
1000 AM EDT TUE JUL 07 2015

NOTE: "FAIR" INDICATES FEW OR NO CLOUDS BELOW 12,000 FEET WITH NO
SIGNIFICANT WEATHER AND/OR OBSTRUCTIONS TO VISIBILITY.

NYZ071-072-176-178-NJZ106-104-071500-
NEW YORK CITY METRO AREA


CITY           SKY/WX    TMP DP  RH WIND       PRES   REMARKS
CENTRAL PARK   CLOUDY    80  71  74 VRB6      30.06F
LAGUARDIA APRT PTSUNNY   82  71  69 S10G18    30.03F
KENNEDY INTL   MOSUNNY   81  73  76 S13       30.06S
NEWARK/LIBERTY PTSUNNY   82  72  71 SW13      30.03S
BRNX BOT. GARD   N/A     82  72  69 S3        30.04F
TETERBORO      CLOUDY    82  72  69 SW10G18   30.02F
$$

NYZ177-179-078>081-071500-
LONG ISLAND NEW YORK

CITY           SKY/WX    TMP DP  RH WIND       PRES   REMARKS
FARMINGDALE    CLOUDY    79  73  82 S12       30.06S
ISLIP          CLOUDY    77  73  87 S8        30.05F
SHIRLEY        CLOUDY    76  73  91 S10       30.08S
WESTHAMPTON    CLOUDY    74  74 100 S6        30.09S FOG
MONTAUK POINT    N/A     75  72  90 VRB6      30.11S
$$

NYZ052-065-067-071500-
HUDSON VALLEY

CITY           SKY/WX    TMP DP  RH WIND       PRES   REMARKS
WHITE PLAINS   LGT RAIN  77  72  84 S9        30.05S
NEWBURGH       MOSUNNY   79  72  78 VRB6      30.05F
MONTGOMERY     CLOUDY    79  71  76 SW7       30.03F
POUGHKEEPSIE   PTSUNNY   80  70  71 S8        30.02F
ALBANY         CLOUDY    77  68  73 S12       30.01F
$$

NJZ001-105-106-008-010-013-015-019>022-104-071500-
NEW JERSEY

CITY           SKY/WX    TMP DP  RH WIND       PRES   REMARKS
NEWARK/LIBERTY PTSUNNY   82  72  71 SW13      30.03S
TETERBORO      CLOUDY    82  72  69 SW10G18   30.02F
CALDWELL       PTSUNNY   79  70  74 S6        30.04S
MORRISTOWN     PTSUNNY   82  75  78 W9        30.05S
SOMERVILLE     CLOUDY    78  71  79 VRB3      30.03S
SUSSEX         CLOUDY    77  70  79 VRB5      30.04S
ANDOVER          N/A     77  70  79 VRB7      30.05S
TRENTON        MOSUNNY   80  71  74 SW8       30.04F
MILLVILLE      PTSUNNY   81  74  79 W8        30.06S
ATLANTIC CITY  NOT AVBL
WRIGHTSTOWN    MOSUNNY   83  74  74 SW9       30.03S
TOMS RIVER     MOSUNNY   82  72  69 SW5       30.05F
BELMAR         PTSUNNY   82  70  65 SW9       30.05S
$$

PAZ047>061-062-071-071500-
EASTERN PENNSYLVANIA

CITY           SKY/WX    TMP DP  RH WIND       PRES   REMARKS
PHILADELPHIA   MOSUNNY   81  72  74 W12       30.05S
ALLENTOWN      CLOUDY    79  72  79 SW7       30.03F
SCRANTON       PTSUNNY   78  70  76 SW7       30.03F
$$

CTZ002-004>006-009-010-012-RIZ004-006-007-MAZ004-011-015-071500-
SOUTHERN NEW ENGLAND
 IN CT

CITY           SKY/WX    TMP DP  RH WIND       PRES   REMARKS
BRADLEY INTL   CLOUDY    74  69  85 S6        30.07F
HARTFORD       CLOUDY    76  71  85 SE10      30.06F
DANBURY        CLOUDY    76  69  79 SE8       30.07S
WTRBRY/OXFORD  CLOUDY    73  68  83 S9        30.10S FOG
BRIDGEPORT     CLOUDY    77  73  87 E7        30.06S
MERIDEN        CLOUDY    78  71  79 SE8       30.06F
NEW HAVEN      PTSUNNY   75  72  90 E8        30.06F FOG
CHESTER        CLOUDY    73  72  94 SE5       30.10F
GROTON         FOG       73  71  93 SE9       30.09S VSB 1/2
WILLIMANTIC    PTSUNNY   76  71  85 SE6       30.09F

 IN RI

CITY           SKY/WX    TMP DP  RH WIND       PRES   REMARKS
PROVIDENCE     PTSUNNY   75  71  87 S8        30.11S
BLOCK ISLAND   CLOUDY    75  72  88 S12       30.11S
WESTERLY       FOG       72  71  97 S9        30.11S VSB 3/4

 IN MA

CITY           SKY/WX    TMP DP  RH WIND       PRES   REMARKS
BOSTON         PTSUNNY   76  70  82 SE6       30.10S
WORCESTER      CLOUDY    73  67  81 S8        30.12F
WESTFIELD      CLOUDY    72  68  87 S3        30.07F
PROVINCETOWN   SUNNY     81  19  10 S9        30.12S
NANTUCKET      MOSUNNY   70  66  87 SE12      30.12F
$$

ANZ330-335-338-340-345-350-353-355-071500-
COASTAL MARINE OBSERVATIONS


STATION/POSITION TIME  SKY/WX   TEMP    WIND        PRES    VSBY  WAVE
                                AIR SEA DIR/SP/G                  HT/PER
                 (UTC)          (F)     (DEG/KT/KT) (MB)    (MI)  (FT/S)
NY HARB ENTRANCE 1350            74 73  190/ 12/ 14 1017.0          2/ 8
4S FIRE IS       1303               69                N/A           2/ 8
20S FIRE ISLAND  1350            72 71  180/ 10/ 10 1017.9          2/ 8
GREAT SOUTH BAY  1300            73 76  220/  8/ 10   N/A
23SW MTP         1350            71 70  160/  8/ 10 1018.7          2/ 4
HUDSON CANYON    NOT AVBL
KINGS POINT      1300            75 69  190/  7/  9 1016.7
CENTRAL LI SOUND NOT AVBL
EASTERN LI SOUND 1300            67 64  130/  6/  8   N/A
ROBBINS REEF     1300            75     160/ 12/ 13 1016.1
$$


>>>>>>>>>>>>>>>>>>>>>>>>>>>> KEY <<<<<<<<<<<<<<<<<<<<<<<<<<<
>                                                          <
>     SKY/WX - SKY CONDITION/PRESENT WEATHER               <
>     TMP    - TEMPERATURE IN FAHRENHEIT                   <
>     DP     - DEWPOINT IN FAHRENHEIT                      <
>     RH     - RELATIVE HUMIDITY IN PERCENT                <
>     WIND   - DIRECTION AND SPEED IN MPH                  <
>     PRES   - MEAN SEA LEVEL PRESSURE IN INCHES OF HG     <
>     WCI    - WIND CHILL INDEX                            <
>     VSB    - VISIBILITY IN MILES                         <
>     HX     - HEAT INDEX                                  <
>     TC     - TEMPERATURE IN CELSIUS                      <
>     VRB    - VARIABLE WIND DIRECTION                     <
>                                                          <
>>>>>>>>>>>>>>>>>>>>>>>>>>>> KEY <<<<<<<<<<<<<<<<<<<<<<<<<<<





USA.gov is the U.S. government's official web portal to all federal, state and local government web resources and services.